Flag for Czech Republic Weather past 2 weeks in Liberec, Czech Republic

Now
62 °F

Partly sunny.


Feels Like: 62 °F
Forecast: 43 / 66 °F
Wind: 2 mph from Northwest

Location: Liberec

Current Time: Aug 27, 2014 at 1:08:19 PM

Latest Report: Aug 27, 2014 at 12:00 PM


Visibility: 17 mi

Pressure: 29.93 "Hg

Humidity: 59%

Dew point: 47 °F

Location of LiberecLocation

Historic Weather in Liberec — Graph

°F

Liberec temperature yesterday

Maximum temperature yesterday: 57 °F (at 4:00 PM)
Minimum temperature yesterday: 50 °F (at 8:00 AM)
Average temperature yesterday: 53 °F

Past Weeks' High & Low Weather Summary

 TemperatureHumidityPressure
High70 °F (Aug 12, 5:00 PM)99% (Aug 17, 2:00 AM)30.11 "Hg (Aug 17, 2:00 AM)
Low41 °F (Aug 25, 3:00 AM)37% (Aug 20, 4:00 PM)29.65 "Hg (Aug 13, 7:00 PM)
Average57 °F75%29.91 "Hg
* Reported Aug 12 11:00 AM — Aug 27 11:00 AM, Liberec, Weather by CustomWeather, © 2014

Note: Actual official high and low records may vary slightly from our data, if they occured in-between our weather recording intervals... More about our weather records

Advertising

Liberec weather history for previous 24 hours

 ConditionsComfort  
Time TempWeatherWind HumidityBarometerVisibility
11:00 AM
Aug 27
58 °FPartly sunny.2 mph71%29.92 "Hg16 mi
10:00 AM57 °FPartly sunny.2 mph73%29.90 "Hg12 mi
9:00 AM54 °FPartly sunny.2 mph84%29.89 "Hg9 mi
8:00 AM51 °FFog.3 mph97%29.86 "Hg4 mi
7:00 AM51 °FFog.2 mph99%29.85 "Hg3 mi
6:00 AM51 °FFog.3 mph98%29.83 "Hg2 mi
5:00 AM51 °FFog.2 mph97%29.81 "Hg4 mi
4:00 AM51 °FFog.3 mph98%29.80 "Hg3 mi
3:00 AM51 °FFog.2 mph99%29.80 "Hg4 mi
2:00 AM52 °FCool.2 mph99%29.80 "Hg1 mi
1:00 AM52 °FLight rain. Overcast.1 mph99%29.80 "Hg1 mi
12:00 AM51 °FFog.1 mph98%29.81 "Hg2 mi
11:00 PM
Aug 26
51 °FFog.1 mph97%29.80 "Hg4 mi
10:00 PM52 °FFog.1 mph97%29.78 "Hg4 mi
9:00 PM52 °FFog.1 mph96%29.79 "Hg5 mi
8:00 PM53 °FLow clouds.1 mph96%29.77 "Hg7 mi
7:00 PM55 °FLow clouds.1 mph92%29.76 "Hg12 mi
6:00 PM56 °FCool.1 mph86%29.74 "Hg12 mi
5:00 PM55 °FLow clouds.2 mph86%29.74 "Hg9 mi
4:00 PM57 °FLow clouds.1 mph81%29.73 "Hg9 mi
3:00 PM55 °FLight rain. Low clouds.1 mph86%29.73 "Hg5 mi
2:00 PM54 °FLight rain. Low clouds.1 mph88%29.72 "Hg5 mi
1:00 PM54 °FLight rain. Low clouds.2 mph86%29.73 "Hg6 mi
Weather by CustomWeather, © 2014

See weather overviewHow to use our weather pages